Location: General Nathan Twining Observatory
(34.5931°N, 106.8201°W)
Time: 06:56:49
(UTC-07:00)

Cosmos 2341 Rocket - Pass Details

Date: 20 September 2017
Orbit: 968 x 1005 km, 82.9° (Epoch: 17 December)

Event Time Altitude Azimuth Distance (km) Brightness Sun altitude
Exits shadow 21:18:40 55° 49° (NE) 1,156 4.1 -27.4°
Drops below altitude 10° 21:23:44 10° 13° (NNE) 2,717 6.4 -28.4°
Sets 21:26:16 0° 11° (N) 3,670 7.2 -28.9°
